C/2013 V2 ( Borisov )

Japanese version
Home page
Updated on March 3, 2018

---------------------------------------------------------------------

* Profile

Discovery Date November 6, 2013
Magnitude 16.9 mag
Discoverer G. Borisov (Crimean Laboratory, Sternberg Astronomical Institute)

* Pictures

* Orbital Elements

Epoch 2014 Oct. 30.0 TT = JDT 2456960.5
T 2014 Oct. 14.36359 TT                                 MPCW
q   3.5079181            (2000.0)            P               Q
z  -0.0012370      Peri.   94.47205     -0.64068049     -0.61548833
 +/-0.0000002      Node    48.42728     +0.18243642     -0.70274589
e   1.0043392      Incl.   37.84839     +0.74581866     -0.35682256
From 1727 observations 2012 Nov. 17-2016 May 13, mean residual 0".5.

* Finding Charts

* Magnitudes Graph

        m1 = 7.5 + 5 log d + 10.0 log r

---------------------------------------------------------------------

The orbital elements are published on M.P.E.C. 2016-K18.
The charts are made with StellaNavigator Ver.8 (AstroArts).
The magnitudes graphs are made with Comet for Windows.

---------------------------------------------------------------------

Copyright(C) Seiichi Yoshida (comet@aerith.net). All rights reserved.